Weather History for Central Park, NY

Change the Weather History Date:

Friday, July 5, 2013

  Actual Average Record
Temperature  
Mean Temperature 83 °F 76 °F  
Max Temperature 90 °F 84 °F 101 °F (1999)
Min Temperature 76 °F 68 °F 53 °F (1979)
Degree Days  
Heating Degree Days 0 0  
Month to date heating degree days 0 0  
Since 1 June heating degree days 9 19  
Since 1 July heating degree days 0 0  
Cooling Degree Days 18 11  
Month to date cooling degree days 69 54  
Year to date cooling degree days 393 335  
Since 1 June cooling degree days 314 266  
Growing Degree Days 32 (Base 50)    
Moisture  
Dew Point 71 °F    
Average Humidity 69    
Maximum Humidity 87    
Minimum Humidity 51    
Precipitation  
Precipitation 0.00 in 0.12 in 3.07 in (1901)
Month to date precipitation 1.45 0.62  
Year to date precipitation 30.77 24.82  
Snow  
Snow 0.00 in 0.00 in 0.00 in (2002)
Month to date snowfall 0.0 0.0  
Since 1 July snowfall 0.0 0.0  
Snow Depth 0.00 in    
Sea Level Pressure  
Sea Level Pressure 30.17 in    
Wind  
Wind Speed 5 mph (SW)    
Max Wind Speed 13 mph    
Max Gust Speed 19 mph    
Visibility 9 miles    
Events      
T = Trace of Precipitation, MM = Missing Value Source: NWS Daily Summary

Daily Weather History Graph

Daily Weather History Graph

Search for Another Location

Airport:

Trip Planner

Search our weather history database for the weather conditions in past years. The results will help you decide how hot, cold, wet, or windy it might be!

Date:

Astronomy

Jul. 05, 2013 Rise Set
Actual Time 5:30 AM EDT 8:30 PM EDT
Civil Twilight 4:57 AM EDT 9:03 PM EDT
Nautical Twilight 4:15 AM EDT 9:45 PM EDT
Astronomical Twilight 3:26 AM EDT 10:34 PM EDT
Moon 3:28 AM EDT (7/5) 6:22 PM EDT (7/5)
Length of Visible Light 16h 05m
Length of Day
14h 59m
Waning Crescent, 6% of the Moon is Illuminated
Jul 5
Waning Crescent
Jul 8
New
Jul 15
First Quarter
Jul 22
Full
Jul 29
Last Quarter

Hourly Weather History & Observations

Time (EDT) Temp. Heat Index Dew Point Humidity Pressure Visibility Wind Dir Wind Speed Gust Speed Precip Events Conditions
12:51 AM 79.0 °F - 70.0 °F 74% 30.21 in 10.0 mi North - - N/A   Clear
1:51 AM 78.1 °F - 71.1 °F 79% 30.20 in 9.0 mi Variable 4.6 mph - N/A   Clear
2:51 AM 78.1 °F - 71.1 °F 79% 30.20 in 10.0 mi Variable 4.6 mph - N/A   Clear
3:51 AM 77.0 °F - 71.1 °F 82% 30.20 in 10.0 mi Variable 6.9 mph - N/A   Clear
4:51 AM 75.9 °F - 72.0 °F 87% 30.20 in 10.0 mi Variable 5.8 mph - N/A   Clear
5:51 AM 75.9 °F - 72.0 °F 87% 30.21 in 8.0 mi Variable 3.5 mph - N/A   Clear
6:51 AM 75.9 °F - 72.0 °F 87% 30.21 in 8.0 mi Variable 5.8 mph - N/A   Clear
7:30 AM 77.0 °F - 72.0 °F 84% 30.24 in 8.0 mi Variable 5.8 mph - N/A   Mostly Cloudy
7:51 AM 78.1 °F - 72.0 °F 81% 30.22 in 8.0 mi Variable 3.5 mph - N/A   Mostly Cloudy
8:17 AM 78.1 °F - 72.0 °F 81% 30.25 in 8.0 mi Variable 5.8 mph - N/A   Mostly Cloudy
8:25 AM 78.1 °F - 72.0 °F 81% 30.25 in 8.0 mi WSW 5.8 mph - N/A   Scattered Clouds
8:51 AM 79.0 °F - 73.0 °F 82% 30.22 in 8.0 mi Calm Calm - N/A   Partly Cloudy
9:51 AM 80.1 °F 84.2 °F 73.0 °F 79% 30.20 in 8.0 mi North - - N/A   Clear
10:51 AM 82.9 °F 88.0 °F 72.0 °F 69% 30.20 in 9.0 mi WSW 5.8 mph - N/A   Clear
11:51 AM 86.0 °F 93.0 °F 73.0 °F 65% 30.19 in 9.0 mi Variable 3.5 mph - N/A   Clear
12:51 PM 88.0 °F 93.8 °F 71.1 °F 57% 30.18 in 10.0 mi Variable 4.6 mph - N/A   Clear
1:51 PM 89.1 °F 95.0 °F 71.1 °F 55% 30.16 in 10.0 mi Variable 5.8 mph - N/A   Partly Cloudy
2:51 PM 89.1 °F 96.0 °F 72.0 °F 57% 30.15 in 9.0 mi North - - N/A   Scattered Clouds
3:51 PM 88.0 °F 95.6 °F 73.0 °F 61% 30.13 in 10.0 mi SSE 6.9 mph - N/A   Scattered Clouds
4:51 PM 88.0 °F 92.1 °F 69.1 °F 53% 30.11 in 10.0 mi Variable 6.9 mph 19.6 mph N/A   Clear
5:51 PM 88.0 °F 91.4 °F 68.0 °F 51% 30.10 in 10.0 mi Variable 3.5 mph - N/A   Scattered Clouds
6:51 PM 87.1 °F 90.6 °F 68.0 °F 53% 30.09 in 10.0 mi West 5.8 mph - N/A   Clear
7:51 PM 86.0 °F 88.2 °F 66.0 °F 51% 30.09 in 10.0 mi WSW 6.9 mph - N/A   Clear
8:51 PM 86.0 °F 88.8 °F 66.9 °F 53% 30.10 in 10.0 mi Variable 4.6 mph - N/A   Clear
9:51 PM 84.0 °F 87.8 °F 69.1 °F 61% 30.12 in 10.0 mi Variable 3.5 mph - N/A   Clear
10:51 PM 82.9 °F 86.5 °F 69.1 °F 63% 30.13 in 10.0 mi WSW 4.6 mph - N/A   Clear
11:51 PM 82.9 °F 86.5 °F 69.1 °F 63% 30.14 in 10.0 mi Variable 3.5 mph - N/A   Clear